Cloud_Cover
4 1 28 62 93 99 100 100 100 100 100 70 96 100 100 100 100 100 98 100 100 100
69 99 16 5 11 76 100 100 94 24 84 62 34 34 99 100 100 100 100 100 100 89
6 57 41 84 56 57 100 86 25 8 9 5 15 99 100 100 100 100 100 100 40 97
5 5 5 92 14 100 100 6 8 10 21 38 100 100 100 100 100 100 100 100 98 100
5 78 100 100 7 100 99 10 5 73 100 100 100 100 100 100 100 100 100 100 91 99
34 74 75 81 33 99 100 100 100 100 100 100 100 100 100 100 100 100 100 100 100 100
5 2 46 36 98 87 100 100 100 100 92 100 100 100 100 100 100 100 100 100 100 100
1 38 100 6 100 50 100 93 68 100 100 100 100 100 100 100 100 100 100 100 100 100
5 3 33 73 100 100 43 96 91 100 100 100 100 100 100 100 100 100 100 100 100 100
46 100 12 96 100 100 82 89 97 100 100 100 100 100 100 100 100 100 100 100 100 100
25 98 77 92 100 100 100 100 100 100 100 100 100 100 100 100 100 100 100 100 100 100
20 66 100 100 100 100 100 100 100 100 100 100 100 100 100 100 100 100 100 100 100 71
96 100 100 100 100 100 100 100 100 100 100 100 100 100 100 100 100 100 100 100 81 78
39 100 100 100 100 100 100 100 100 100 100 100 100 100 100 100 100 100 94 68 47 5